STARLINK-34548, 64716

Orbit data source: Space-Track

STARLINK-34548, 64716 is a payload satellite owned by SpaceX/Seattle (US) in LEO that was launched on Sat, 28 Jun 2025 UTC via an FALCON 9 launch vehicle from the Air Force Western Test Range (AFWTR). Payload-class satellites include a variety of spacecraft equipped with specific instruments for various scientific and technological missions. These include communications satellites like Starlink; space stations such as the ISS; scientific satellites like the Hubble; Earth observation satellites from companies like Planet Labs, Umbra, and HawkEye 360; GPS; miniature CubeSats for education and research; and military/defense satellites.

Loading next visibility...
Identifier
64716, 2025-142W
Orbit
LEO
Country
Flag of USUS
Related business
Manufacturer
SpaceX/Seattle
Mission
Operational Commercial Communications
Bus & Motor
STARLINK V2MO, Unknown motor
Mass
575 kg wet, ~530 kg dry
Launch date (UTC)
2025-06-28 (1 year ago)
Launch vehicle
FALCON 9
Launch site
Air Force Western Test Range (AFWTR)
Object type
Payload
Rocket body
Debris
Shape & HBR
Box + 2 Pan, 17.7 m
Radar Cross Section
36.964 m², Large (>1 m²)

Expand to show TLE details & history
Last TLE update: 6 hours ago

TLE from 6 hours ago
0 STARLINK-34548
1 64716U 25142W   26207.61664780  .00007022  00000-0  59561-3 0  9993
2 64716  70.0024 324.0509 0003236 269.2339  90.8449 14.98337382 60277
Epoch: 2026-07-26T14:47Z
TLE epoch observation values (Epoch: 2026-07-26T14:47:58.369Z)
Latitude
-0.00008°
Longitude
157.74565°
Altitude
574.491 km
Speed
7.574 km/s
True Right ascension
21h 36m 12s
True Declination
0° 00' 00"
Sunlit
Object was in full shadow at epoch
Visualization orbit readout
Latitude
Unknown
Longitude
Unknown
Altitude
Unknown
Speed
Unknown
Apparent Right ascension
Unknown
Apparent Declination
Unknown
Sunlit
N/A
Visualization observer readout
Local Sidereal Time
09:50:52
Azimuth
Unknown
Elevation
Unknown
Doppler factor
Unknown
Orbital elements
Apogee altitude
572.229 km
Perigee altitude
567.733 km
Semi-major axis
6,948.118 km
Eccentricity
0.00032
Inclination
70.0024°
RAAN
324.0509°
Arg. of periapsis
269.2339°
True anomaly
90.88198°
Mean anomaly
90.8449°
Eccentric anomaly
90.86344°
Mean motion
3.74751 °/min
Orbital period
96.06 mins
BSTAR
0.00059561
Loading maneuver chart data...
Computing Atmospheric mass density...
Loading historical data...
Loading historical data...
Loading historical data...
Loading historical data...
Loading historical data...
Loading historical data...
Loading historical data...

Documentation

Showing up to 5 results
|